Regional Weather Roundup
Issued by NWS Midland/Odessa, TX

Skip options and go directly to product.
Home | Oldest Version | Previous Version | Current Version | All | Graphics & Text | Save Text | Print | Product List | Glossary On

Skip product version selection by date and time.   
243
ASUS44 KMAF 270110
RWRMAF
MIDLAND AREA WEATHER ROUNDUP
NATIONAL WEATHER SERVICE MIDLAND TX
800 PM CDT THU MAR 26 2015

...IN SOUTHWEST TEXAS AND SOUTHEAST NEW MEXICO...

CITY           SKY/WX    TMP DP  RH WIND       PRES   REMARKS
ALPINE         CLEAR     54  32  43 E7        30.30R
ANDREWS        FAIR      60  19  20 CALM      30.20R
ARTESIA        CLEAR     59  23  25 SE7       30.20S
BIG SPRING     CLEAR     64  18  17 CALM      30.20R
CARLSBAD       CLEAR     60  25  26 S7        30.19S
DRYDEN           N/A     64  33  31 N6        30.18R
FORT STOCKTON  CLEAR     58  28  32 N6        30.22R
GUAD PASS      CLEAR     55  25  31 SW13      30.26R
HOBBS          CLEAR     59  18  20 CALM      30.20S
MARFA          CLEAR     55  30  38 NE12      30.25R
MIDLAND AIRPK  CLEAR     61  24  24 W3        30.20S
MIDLAND INTL   CLEAR     61  26  26 CALM      30.20R
ODESSA         CLEAR     60  22  23 CALM      30.20S
PECOS          CLEAR     60  26  27 W3        30.21S
PRESIDIO       FAIR      69  37  30 E5        30.15S
SEMINOLE       CLEAR     59  20  22 CALM      30.20S
SNYDER         CLEAR     60  24  25 CALM      30.18S
WINK           CLEAR     61  21  21 SE3       30.19R
$$
...OTHER STATIONS IN TEXAS...

CITY           SKY/WX    TMP DP  RH WIND       PRES   REMARKS
ABILENE        CLEAR     59  26  28 N9        30.18R
AMARILLO       CLEAR     59  15  18 W10       30.14R
AUSTIN         PTCLDY    63  37  38 N15       30.09R
BROWNSVILLE    CLOUDY    68  56  65 N9        30.03R
CORPUS CHRISTI CLOUDY    63  56  78 N5        30.06R
DALLAS FTW     PTCLDY    59  30  33 N13       30.11R
DEL RIO        CLEAR     68  37  32 NW7       30.13R
EL PASO        CLEAR     65  24  21 CALM      30.19R
HOUSTON INT    CLOUDY    62  48  60 N9        30.04R
LUBBOCK        PTCLDY    60  18  19 NW7       30.16R
SAN ANGELO     CLEAR     60  26  27 N8        30.16R
SAN ANTONIO    PTCLDY    66  38  35 N10       30.10R
WACO           CLEAR     59  33  37 N12       30.11R
WICHITA FALLS  NOT AVBL
$$
...OTHER LOCATIONS IN NEW MEXICO...

CITY           SKY/WX    TMP DP  RH WIND       PRES   REMARKS
ALAMAGORDO     CLEAR     64  18  16 NE6       30.20S
ALBUQUERQUE    PTCLDY    62  18  18 S7        30.20S
CANNON AFB     NOT AVBL
CLOVIS         CLEAR     55  18  22 W9        30.18R
HOLLOMAN AFB   NOT AVBL
ROSWELL        CLEAR     60  22  23 SE13      30.19R
RUIDOSO        CLEAR     54  14  20 NW8       30.28R
SANTA FE       CLEAR     58  13  17 S6        30.20S
TRUTH OR CONSE CLEAR     66  12  12 S7        30.19R
TUCUMCARI      PTCLDY    60  16  18 SW8       30.13S
$$

USA.gov is the U.S. government's official web portal to all federal, state and local government web resources and services.